Regional Weather Roundup
Issued by NWS

Home | Current Version | Previous Version | Text Only | Print | Product List | Glossary Off
Versions: 1 2 3 4 5 6 7 8 9 10 11 12 13 14 15 16 17 18 19 20 21 22 23 24 25 26 27 28 29 30 31 32 33 34 35 36 37 38 39 40 41 42 43 44 45 46 47 48 49 50

000
ASUS43 KMPX 300501
RWRMN
WEATHER ROUNDUP FOR MINNESOTA
NATIONAL WEATHER SERVICE TWIN CITIES/CHANHASSEN MN
1200 AM CDT MON MAR 30 2015


NOTE: "FAIR" INDICATES FEW OR NO CLOUDS BELOW 12,000 FEET WITH NO
SIGNIFICANT WEATHER AND/OR OBSTRUCTIONS TO VISIBILITY. N/A MEANS
CURRENT SKY AND/OR WEATHER CONDITIONS ARE NOT AVAILABLE.

MNZ060>063-068>070-300600-
   Twin Cities Metro

CITY           SKY/WX    TMP DP  RH WIND       PRES   REMARKS
TWIN CITIES    MOCLDY    43  27  53 SW6       29.96S
ST PAUL        PTCLDY    42  24  49 W6        29.97R
CRYSTAL        CLOUDY    43  26  51 W7        29.95S
BLAINE         PTCLDY    43  27  52 W5        29.95S
LAKEVILLE      PTCLDY    39  28  65 W7        29.97S
EDEN PRAIRIE   MOCLDY    39  28  64 SW7       29.96S
SOUTH ST PAUL  MOCLDY    42  28  56 W8        29.96R
LAKE ELMO      FAIR      39  28  65 W5        29.96R
$$
MNZ001>005-007-008-013>017-022>024-027-028-300600-
   Northwest Minnesota

CITY           SKY/WX    TMP DP  RH WIND       PRES   REMARKS
BEMIDJI        CLEAR     33  27  78 CALM      29.87S
HALLOCK        CLEAR     34  30  86 W5        29.87S WCI  30
ROSEAU         PTCLDY    39  28  65 W5        29.85S
WARROAD        CLEAR     36  27  69 W8        29.85S
THIEF RVR FALL CLEAR     36  28  75 W6        29.89S
CROOKSTON      CLEAR     32  27  80 W9        29.91S WCI  24
FOSSTON        CLEAR     28  25  86 CALM      29.89S
DETROIT LAKES  FAIR      41  30  65 W6        29.91F
MOORHEAD       CLEAR     36  32  87 W5        29.93S
PARK RAPIDS    PTCLDY    34  26  72 W3        29.88F
MAHNOMEN       FAIR      36  29  75 W7        29.89F
$$
MNZ006-009>011-018-025>026-300600-
   North Central Minnesota

CITY           SKY/WX    TMP DP  RH WIND       PRES   REMARKS
BAUDETTE       CLEAR     35  25  66 W8        29.82S WCI  29
FLAG ISLAND    CLEAR     37  27  65 W10       29.82R
INTL FALLS     CLEAR     34  25  69 W8        29.79S WCI  27
WASKISH        CLEAR     34  28  80 CALM      29.84F
BIG FORK       CLEAR     30  25  80 SW3       29.84S
LONGVILLE      CLEAR     36  25  64 W3        29.87F
GRAND RAPIDS   CLEAR     37  25  60 W8        29.85S
CRANE LAKE     CLEAR     37  27  65 W7        29.79S
ORR            CLEAR     36  23  60 CALM      29.78R
COOK           CLEAR     34  25  69 W7        29.81R WCI  28
WALKER         FAIR      36  26  65 W5        29.88S
$$
MNZ012-019>021-037-300600-
   Northeast Minnesota

CITY           SKY/WX    TMP DP  RH WIND       PRES   REMARKS
DULUTH         CLEAR     37  24  59 W10       29.82S
ELY            CLEAR     34  27  75 W8        29.76S WCI  27
HIBBING        CLEAR     33  23  66 W5        29.82S WCI  29
EVELETH        CLEAR     32  25  74 W6        29.82S WCI  26
DULUTH HARBOR  CLEAR     39  27  60 CALM      29.85S
TWO HARBORS    CLEAR     39  28  65 W5        29.79S
SILVER BAY     CLEAR     37  27  65 W6        29.76S
GRAND MARAIS     N/A     39  28  64 W7        29.70S
G MARAIS ARPRT CLEAR     34  23  64 W13G22    29.67S WCI  25
$$
MNZ029>031-032-039>041-046>048-054>057-064-300600-
   West Central Minnesota

CITY           SKY/WX    TMP DP  RH WIND       PRES   REMARKS
FERGUS FALLS   MOCLDY    39  27  60 CALM      29.95S
WHEATON        CLEAR     39  27  60 SW9       29.96F
MORRIS         CLEAR     36  27  69 CALM      29.94F
ALEXANDRIA     MOCLDY    36  27  69 SW5       29.94F
ELBOW LAKE     FAIR      37  28  69 S6        29.93F
WADENA         PTCLDY    37  27  65 SW6       29.91S
GLENWOOD       MOCLDY    36  27  69 SW5       29.95F
APPLETON       CLEAR     37  27  65 SW9       29.96F
BENSON         MOCLDY    36  27  69 CALM      29.96S
ORTONVILLE     CLEAR     41  27  56 W7        29.96F
MADISON        CLEAR     39  27  60 W5        29.97F
WILLMAR        FAIR      36  28  75 SW3       29.98F
$$
MNZ033>034-036-042>043-049>051-058-059-300600-
   Central Minnesota

CITY           SKY/WX    TMP DP  RH WIND       PRES   REMARKS
ST CLOUD       PTCLDY    37  26  64 SW7       29.94S
SAUK CENTRE    CLOUDY    37  29  74 SW5       29.94F
PAYNESVILLE    CLOUDY    34  27  77 SW6       29.96F WCI  28
AITKIN         CLEAR     39  25  56 SW5       29.87F
PINE RIVER     CLEAR     36  27  69 CALM      29.92F
BRAINERD       CLEAR     32  23  69 SW9       29.90F WCI  24
STAPLES        CLOUDY    36  25  64 SW5       29.91S
LONG PRAIRIE   CLOUDY    37  28  70 SW6       29.93F
LITTLE FALLS   PTCLDY    34  23  64 CALM      29.93S
LITCHFIELD     CLOUDY    43  30  61 CALM      29.97S
BUFFALO        MOCLDY    37  28  70 SW3       29.97S
MAPLE LAKE     PTCLDY    39  30  69 SW6       29.96S
$$
MNZ037-044-045-052-053-300600-
   East Central Minnesota

CITY           SKY/WX    TMP DP  RH WIND       PRES   REMARKS
PRINCETON      PTCLDY    39  25  56 CALM      29.94S
MORA           CLEAR     34  23  64 CALM      29.92S
CAMBRIDGE      PTCLDY    36  25  64 SW3       29.91S
RUSH CITY      PTCLDY    35  25  67 W5        29.92R WCI  31
MOOSE LAKE     CLEAR     36  27  69 CALM      29.85S
HINCKLEY       FAIR      36  28  75 W6        29.90R
CLOQUET        FAIR      37  25  60 W8        29.84S
MCGREGOR       CLEAR     37  27  65 W6        29.88S
$$
MNZ071>073-080-081-089-090-097-098-300600-
   Southwest Minnesota

CITY           SKY/WX    TMP DP  RH WIND       PRES   REMARKS
MONTEVIDEO     MOCLDY    39  27  60 W6        29.98F
GRANITE FALLS  CLEAR     38  26  61 SW10      30.00F
CANBY          CLEAR     40  26  55 SW8       30.00F
MARSHALL       CLEAR     39  23  52 SW13      30.00F
REDWOOD FALLS  CLEAR     40  25  55 SW9       29.98F
OLIVIA         PTCLDY    32  27  80 SW8       29.97F WCI  25
PIPESTONE      CLEAR     36  21  55 SW5       30.02F
WINDOM         CLEAR     36  25  64 CALM      30.02F
WORTHINGTON    CLEAR     36  21  55 SW7       30.05S
JACKSON        PTCLDY    37  23  56 SW5       30.03F
TRACY          CLEAR     39  26  59 SW9       30.01F
SLAYTON        CLEAR     36  22  56 CALM      30.03S
$$
MNZ065>067-074>077-082>085-091>093-300600-
   South Central Minnesota

CITY           SKY/WX    TMP DP  RH WIND       PRES   REMARKS
MANKATO        MOCLDY    41  27  56 W9        29.99F
NEW ULM        PTCLDY    37  25  60 SW6       29.99F
ST JAMES       CLEAR     36  25  64 SW9       30.02S
FAIRMONT       CLEAR     37  21  52 W8        30.02S
GLENCOE        CLOUDY    38  32  78 W5        29.97S
FARIBAULT      FAIR      39  30  70 W6        29.99S
OWATONNA       MOCLDY    37  30  75 SW5       29.99S
WASECA         MOCLDY    34  28  80 W3        30.01S
ALBERT LEA     CLEAR     39  28  65 W5        30.01S
$$
MNZ078>079-086>088-094>096-300600-
   Southeast Minnesota

CITY           SKY/WX    TMP DP  RH WIND       PRES   REMARKS
ROCHESTER      CLEAR     37  29  72 W12       29.98R
RED WING       CLEAR     36  27  69 CALM      29.95S
STANTON        MOCLDY    42  29  61 W6        29.96S
DODGE CENTER   PTCLDY    39  30  70 W9        29.98R
WINONA         CLEAR     41  28  60 NW9       29.96R
AUSTIN         CLEAR     39  30  70 W8        30.00R
PRESTON        CLEAR     38  29  71 NW12      29.98S
$$
ABBREVIATIONS USED IN REMARKS
   TC - TEMPERATURES IN CELSIUS
  WCI - WIND CHILL INDEX
   HX - HEAT INDEX
  VSB - VISIBILITY
$$


USA.gov is the U.S. government's official web portal to all federal, state and local government web resources and services.